Location: Newark
(48.1500°N, 2.9667°W)
Time: 14:31:32
(UTC+00:00)

Transit 2A - All Passes

Search period start: 24 January 2020 00:00
Search period end: 03 February 2020 00:00
Orbit: 601 x 958 km, 66.7° (Epoch: 24 January)

Date Brightness Start Highest point End Pass type
(mag) Time Alt. Az. Time Alt. Az. Time Alt. Az.
24 Jan - 03:41:32 10° NNW 03:45:33 28° NE 03:49:52 10° ESE visible
24 Jan - 05:24:19 10° NW 05:28:57 54° WSW 05:34:01 10° SSE visible
24 Jan - 20:08:11 10° SSW 20:12:27 52° ESE 20:16:41 10° NE visible
24 Jan - 21:52:14 10° W 21:55:51 25° NW 21:59:29 10° NNE night (unlit)
25 Jan - 03:07:36 10° NNW 03:11:14 22° NE 03:15:04 10° E visible
25 Jan - 04:50:07 10° NW 04:54:51 78° WSW 05:00:03 10° SSE visible
25 Jan - 06:35:34 10° W 06:37:21 12° WSW 06:39:11 10° SW visible
25 Jan - 19:34:25 10° S 19:38:25 35° ESE 19:42:23 10° NE visible
25 Jan - 21:17:35 10° WSW 21:21:32 33° NW 21:25:32 10° NNE night (unlit)
26 Jan - 02:33:44 10° N 02:36:51 17° NE 02:40:07 10° ENE night (unlit)
26 Jan - 04:15:59 10° NNW 04:20:43 76° NE 04:25:54 10° SE visible
26 Jan - 06:00:14 10° WNW 06:03:26 18° WSW 06:06:49 10° SSW visible
26 Jan - 19:00:56 10° SSE 19:04:26 24° ESE 19:07:55 10° ENE visible
26 Jan - 20:43:06 10° WSW 20:47:18 45° NW 20:51:31 10° NNE visible
26 Jan - 22:29:57 10° NW 22:31:36 12° NNW 22:33:16 10° N night (unlit)
27 Jan - 01:59:56 10° N 02:02:25 14° NNE 02:04:59 10° ENE night (unlit)
27 Jan - 03:41:55 10° NNW 03:46:33 54° NE 03:51:36 10° SE visible
27 Jan - 05:25:31 10° WNW 05:29:27 25° WSW 05:33:41 10° SSW visible
27 Jan - 18:27:50 10° SSE 18:30:30 16° ESE 18:33:09 10° ENE visible
27 Jan - 20:08:46 10° SW 20:13:06 66° NW 20:17:28 10° NNE visible
27 Jan - 21:54:41 10° WNW 21:57:08 15° NNW 21:59:37 10° N night (unlit)
28 Jan - 01:26:17 10° N 01:27:56 12° NNE 01:29:37 10° NE night (unlit)
28 Jan - 03:07:54 10° NNW 03:12:20 40° NE 03:17:08 10° ESE visible
28 Jan - 04:51:04 10° NW 04:55:27 35° WSW 05:00:14 10° S visible
28 Jan - 17:56:02 10° ESE 17:56:37 10° ESE 17:57:12 10° E visible
28 Jan - 19:34:35 10° SSW 19:38:58 85° SE 19:43:21 10° NE visible
28 Jan - 21:19:40 10° W 21:22:43 18° NW 21:25:48 10° N visible
29 Jan - 02:33:55 10° NNW 02:38:04 30° NE 02:42:31 10° ESE night (unlit)
29 Jan - 04:16:46 10° NW 04:21:24 51° WSW 04:26:30 10° SSE visible
29 Jan - 19:00:36 10° SSW 19:04:53 57° ESE 19:09:10 10° NE visible
29 Jan - 20:44:49 10° W 20:48:20 23° NW 20:51:55 10° NNE visible
30 Jan - 01:59:58 10° NNW 02:03:45 23° NE 02:07:46 10° E night (unlit)
30 Jan - 03:42:33 10° NW 03:47:19 73° WSW 03:52:35 10° SSE night (unlit)
30 Jan - 05:28:24 10° W 05:29:46 11° WSW 05:31:11 10° WSW night (unlit)
30 Jan - 18:26:48 10° S 18:30:51 38° ESE 18:34:53 10° NE visible
30 Jan - 20:10:09 10° WSW 20:14:01 31° NW 20:17:57 10° NNE visible
31 Jan - 01:26:05 10° N 01:29:23 19° NE 01:32:51 10° E night (unlit)
31 Jan - 03:08:25 10° NNW 03:13:12 81° NE 03:18:28 10° SE night (unlit)
31 Jan - 04:52:48 10° WNW 04:55:52 17° WSW 04:59:06 10° SSW night (unlit)
31 Jan - 17:53:15 10° SSE 17:56:52 25° ESE 18:00:26 10° ENE visible
31 Jan - 19:35:37 10° WSW 19:39:46 42° NW 19:43:58 10° NNE visible
31 Jan - 21:22:40 10° NW 21:24:08 11° NNW 21:25:38 10° N visible
01 Feb - 00:52:15 10° N 00:54:57 15° NNE 00:57:46 10° ENE night (unlit)
01 Feb - 02:34:20 10° NNW 02:39:02 58° NE 02:44:12 10° SE night (unlit)
01 Feb - 04:18:02 10° WNW 04:21:55 24° WSW 04:26:05 10° SSW night (unlit)
01 Feb - 17:20:03 10° SSE 17:22:55 17° ESE 17:25:46 10° ENE daylight
01 Feb - 19:01:15 10° SW 19:05:34 61° NW 19:09:55 10° NNE visible
01 Feb - 20:47:19 10° WNW 20:49:39 14° NNW 20:52:02 10° N visible
02 Feb - 00:18:32 10° N 00:20:29 12° NNE 00:22:29 10° NE night (unlit)
02 Feb - 02:00:18 10° NNW 02:04:49 43° NE 02:09:46 10° ESE night (unlit)
02 Feb - 03:43:33 10° NW 03:47:55 33° WSW 03:52:39 10° S night (unlit)
02 Feb - 16:47:41 10° SE 16:49:01 11° ESE 16:50:22 10° E daylight
02 Feb - 18:27:03 10° SW 18:31:24 88° NW 18:35:48 10° NE visible
02 Feb - 20:12:16 10° WNW 20:15:13 17° NNW 20:18:13 10° N visible
02 Feb - 23:45:14 10° NNE 23:45:58 10° NNE 23:46:41 10° NNE night (unlit)
